IRIDIUM 175

Last updated on Sun Jun 21 2026 00:03:14 GMT+0000 (Coordinated Universal Time)

1 43928U 19002G 26171.39501235 .00000252 00000+0 68437-4 0 9993 2 43928 86.4515 289.1799 0002926 169.7310 190.3951 14.43614192399440
UTC large
Height (km)
Speed (km/s)
/
Latitude / Longitude
Inclination (degrees)
Orbital Period (minutes)
Azimuth
Elevation
Range (km)
Doppler Factor

Next 0 passes for location: London (51.5072 / 0.1276)

No passes found over London.
IRIDIUM 175